{"data":{"norad_id":56885,"epoch":"2026-09-19T18:22:52.505472Z","epoch_age_seconds":180956,"freshness":"STALE","line1":"1 56885U 23083K   26262.76588548 -.00000387  00000+0 -45561-5 0  9992","line2":"2 56885  43.0033  69.0022 0001091 262.0631  98.0097 15.27577484181314","mean_motion":15.27577484,"eccentricity":0.0001091,"inclination_deg":43.0033,"raan_deg":69.0022,"arg_perigee_deg":262.0631,"mean_anomaly_deg":98.0097,"bstar":-4.5561e-6,"rev_number":18131,"period_min":94.266903975916,"perigee_km":482.3080736341,"apogee_km":483.80518608414,"semimajor_km":6861.1936298591,"source":"CELESTRAK","updated_at":"2026-09-21T09:00:33.521146Z"}}